Temperature
30 31 31 32 32 32 32 32 32 32 32 32 31 31 31 29 28 28 27 26 25 25 24 23 22 21 21 20 20 20 20 20 19 19 19 19 18 18 18 18 18 18 18 18
30 31 32 32 32 32 32 31 32 32 32 31 31 31 31 30 29 28 27 26 26 25 24 23 22 21 21 21 20 20 20 20 20 19 19 19 19 18 18 18 18 18 18 18
31 32 32 31 31 31 31 32 32 31 31 31 31 31 31 30 29 28 27 27 26 26 25 23 22 22 21 21 21 21 20 20 20 20 19 19 19 19 18 18 18 18 18 18
31 32 31 31 31 31 31 32 31 31 31 31 31 31 31 31 30 29 28 27 27 26 25 24 23 22 22 21 21 21 21 20 20 20 19 19 19 19 19 19 18 18 18 18
31 31 31 30 31 31 31 32 31 31 31 31 31 31 31 31 30 30 29 28 27 26 25 24 23 22 22 21 21 21 21 20 20 20 20 20 19 19 19 19 18 18 18 18
31 31 31 31 31 31 31 31 31 31 31 30 31 31 31 32 31 31 30 28 27 26 25 24 23 22 22 21 21 21 21 21 20 20 20 20 19 19 19 19 19 18 18 18
30 30 31 31 31 31 31 30 30 30 30 30 31 30 31 31 31 31 30 29 27 26 25 25 24 23 22 21 21 21 21 21 21 20 20 20 19 19 19 19 19 19 18 18
29 30 30 30 30 30 30 31 30 29 30 31 30 30 31 31 30 29 29 28 27 26 26 25 24 23 22 21 21 21 21 21 21 20 20 20 20 19 19 19 19 19 19 19
29 29 30 30 30 31 30 30 32 31 30 30 31 31 31 30 30 29 29 28 27 26 26 25 24 23 22 22 21 21 21 21 20 20 20 20 20 20 19 19 19 19 19 19
29 28 30 30 30 30 30 31 31 30 29 29 30 30 30 30 29 29 29 28 26 26 26 25 24 23 22 22 21 21 20 20 20 20 20 20 20 20 20 19 19 19 19 19
28 28 29 29 29 29 29 29 29 30 30 29 29 30 31 30 29 29 28 27 26 25 25 24 24 23 22 22 21 21 20 20 20 20 20 20 20 20 19 19 19 19 19 19
27 28 28 29 29 29 29 29 29 29 28 29 29 30 30 29 29 28 27 26 25 24 24 24 23 23 22 22 21 21 20 20 20 20 20 20 19 19 19 19 19 19 19 19
26 26 26 28 28 28 28 28 29 29 29 29 29 29 29 28 28 27 26 24 23 23 23 23 22 22 22 21 21 20 20 20 20 19 19 19 19 19 19 19 19 19 19 18
24 26 26 27 28 28 27 28 28 28 29 28 29 29 29 28 27 26 24 23 23 22 22 22 21 21 20 20 20 20 20 20 19 19 19 19 18 18 19 19 19 18 18 18
25 25 26 26 27 27 27 27 27 27 28 28 28 28 28 27 26 25 23 22 22 22 21 21 20 20 20 19 19 19 19 19 19 19 18 19 18 18 18 18 18 18 18 18
24 24 24 25 26 26 26 26 26 27 27 27 27 27 28 26 24 23 22 22 21 21 20 20 20 19 19 19 19 19 19 18 18 18 18 18 18 18 18 18 18 18 18 17
23 23 23 25 25 25 25 26 26 26 26 26 26 26 26 25 24 23 22 21 21 20 20 19 19 19 18 18 18 18 18 18 18 18 18 18 18 18 18 17 17 17 17 17
21 21 22 24 24 23 25 25 25 25 25 25 25 25 24 24 22 21 21 20 20 19 19 18 18 18 18 18 18 18 18 18 18 17 17 17 17 17 17 17 17 17 17 16
22 21 22 23 23 24 24 24 24 24 24 24 24 23 23 22 22 21 20 19 19 18 18 18 18 18 18 17 17 18 17 17 17 17 17 17 17 17 17 16 17 16 16 16
21 20 21 22 22 23 24 23 23 23 23 23 23 22 22 21 23 22 19 18 18 18 17 17 17 17 17 17 17 17 17 17 17 17 17 17 16 16 16 16 16 16 16 16
20 20 21 21 22 23 22 22 22 22 22 21 21 21 20 20 21 19 18 17 17 17 17 17 16 16 16 16 16 16 17 17 16 16 16 16 16 16 16 16 16 16 15 15
20 21 20 21 21 22 21 21 21 20 19 19 19 19 19 19 18 18 17 16 16 16 16 16 15 15 15 16 16 16 16 16 16 16 16 16 16 16 16 16 15 15 15 15
20 20 20 20 21 19 19 19 18 18 18 18 18 18 18 18 17 17 16 16 16 15 15 15 15 15 15 15 15 15 16 16 16 16 16 15 15 15 15 15 15 14 14 14
19 18 18 19 19 19 18 18 17 17 17 17 17 17 17 17 17 16 16 15 15 15 15 15 14 14 14 14 15 15 15 15 15 15 15 14 14 14 14 14 14 14 14 14
18 17 18 18 18 18 17 17 16 16 16 16 16 16 16 16 16 15 15 14 14 14 14 14 14 14 14 14 14 14 14 14 14 14 14 14 14 14 14 13 13 13 13 13
18 18 17 18 17 17 17 16 15 15 15 15 15 15 15 15 15 15 14 14 14 14 14 13 13 13 13 13 13 13 13 13 13 13 13 13 13 13 13 13 13 13 13 13
Wind_Speed
10 11 12 11 11 9 8 8 7 4 1 4 5 4 3 7 9 9 10 11 11 11 11 11 12 11 11 10 10 9 9 9 8 7 7 6 6 6 5 5 7 7 7 8
10 13 12 8 8 10 10 10 9 5 2 4 5 5 3 6 9 9 10 11 12 11 11 11 12 12 12 12 11 11 10 10 10 8 6 5 5 5 5 5 6 7 8 8
14 8 7 10 11 11 12 11 10 7 5 7 7 7 5 6 7 9 10 10 11 12 13 13 13 13 13 12 12 11 11 11 10 9 7 6 6 5 6 6 6 7 8 8
11 9 8 11 12 12 12 9 9 9 10 7 7 8 5 5 7 8 10 10 11 12 12 12 13 13 13 13 12 12 11 11 10 10 9 10 8 8 7 6 6 7 8 8
10 9 11 12 11 11 9 6 8 10 11 11 9 9 5 6 6 7 9 10 11 11 12 12 13 13 12 12 12 12 11 11 11 10 10 10 9 7 6 6 6 6 7 8
10 7 8 9 9 9 7 7 8 10 11 13 11 11 8 5 5 5 5 7 9 9 11 12 12 12 11 11 11 11 11 11 11 12 11 10 10 8 8 8 7 7 7 7
11 11 9 7 9 10 11 11 10 11 12 11 7 9 7 3 3 3 3 4 6 8 9 11 12 12 12 12 12 12 12 11 11 12 11 11 10 10 10 9 8 8 7 7
11 10 9 8 10 10 13 14 12 11 11 9 8 9 5 2 2 2 2 2 4 6 8 10 11 12 12 12 12 12 12 12 12 11 11 10 10 9 8 9 8 7 6 6
7 7 6 6 8 10 11 13 13 13 13 12 9 7 6 4 4 3 2 2 3 4 6 9 10 11 11 12 12 12 12 12 11 11 10 10 10 9 8 8 8 7 7 6
6 7 7 6 8 8 10 9 10 12 12 13 12 12 9 6 5 4 2 2 2 3 5 7 8 9 10 10 11 11 11 11 11 11 10 9 9 9 8 7 8 7 7 6
7 8 8 8 9 9 9 10 10 10 12 13 12 8 2 3 4 3 3 2 2 3 4 6 7 8 8 9 10 10 10 10 10 10 9 9 9 9 9 8 8 8 7 7
4 7 9 9 7 7 10 11 12 12 12 12 13 8 2 1 1 1 1 2 2 2 3 5 5 6 7 8 8 9 9 9 9 9 9 9 8 8 9 9 8 8 8 8
3 6 9 10 10 9 9 10 11 12 12 14 15 10 4 3 1 1 1 1 2 3 3 4 4 4 5 5 6 7 8 8 8 9 9 9 9 9 9 8 8 8 8 8
5 7 10 12 7 5 9 11 11 14 14 15 16 13 6 4 3 2 1 1 1 2 3 3 3 3 3 3 4 6 6 7 8 8 9 9 9 8 8 8 8 8 7 7
4 8 9 10 9 9 11 12 13 15 16 17 15 13 10 5 4 3 2 2 2 2 2 2 3 3 3 3 3 4 4 5 6 7 8 8 8 7 7 8 7 7 7 7
3 6 8 11 10 10 12 12 13 14 15 15 14 13 6 3 2 3 3 2 2 2 1 1 2 2 3 3 3 3 3 4 5 5 6 6 7 7 7 7 7 7 7 6
5 6 8 11 9 11 14 12 12 12 11 12 13 9 4 4 4 4 4 3 3 2 2 1 1 2 2 2 2 3 3 3 4 4 4 5 6 5 6 6 6 6 6 6
7 7 7 10 9 14 5 1 5 8 8 8 8 6 5 4 3 3 3 2 1 1 1 1 1 1 1 2 2 2 2 3 3 4 4 4 5 5 5 5 5 6 5 5
8 8 7 9 12 12 6 3 4 7 8 5 6 4 3 2 3 3 1 1 1 1 1 1 1 1 1 1 2 2 2 2 3 3 3 3 4 5 5 5 4 4 4 4
7 9 9 9 11 11 4 1 2 6 8 2 3 3 3 3 6 3 0 1 2 1 1 1 1 1 2 1 2 2 2 3 3 2 2 2 3 4 5 4 4 4 4 4
8 9 12 13 12 8 1 2 2 7 2 3 2 3 4 5 5 2 1 1 2 2 2 2 1 1 1 2 2 2 2 2 2 2 2 2 2 3 4 4 4 4 4 3
7 7 9 10 11 7 3 2 4 3 5 5 4 4 4 5 4 1 1 1 2 2 2 2 2 1 1 1 2 3 2 2 2 3 3 3 2 2 2 3 3 3 3 4
6 5 5 6 4 2 3 4 4 5 6 5 5 5 5 4 4 2 2 2 2 2 2 2 2 1 1 1 2 2 2 2 3 3 3 2 2 1 1 2 3 4 4 3
4 3 6 7 6 5 5 4 4 4 5 6 6 5 5 5 4 3 2 2 2 2 2 2 1 1 2 2 1 1 1 2 3 3 3 2 2 2 2 1 2 3 3 3
5 4 6 9 8 7 5 4 5 6 6 6 5 4 4 4 4 3 3 2 2 2 2 2 2 2 2 2 1 1 1 2 3 3 3 3 3 2 2 2 0 1 1 1
7 8 8 7 5 6 6 6 7 7 6 5 5 5 4 4 4 3 3 3 2 2 2 2 2 3 2 2 1 1 1 2 2 3 3 3 3 3 2 3 2 3 1 2
Wind_Direction
198 217 223 228 233 256 262 258 255 261 257 268 267 270 217 188 196 194 194 194 196 197 191 188 192 193 190 190 191 192 191 183 185 185 186 184 182 183 184 187 184 190 196 190
204 223 233 241 237 241 244 247 250 247 229 262 270 269 243 199 205 205 201 199 199 195 191 191 194 194 194 192 194 193 193 189 190 187 190 192 187 190 188 189 183 197 198 195
222 224 218 223 225 231 238 244 250 254 250 238 255 249 219 198 205 207 209 206 203 200 195 193 196 198 196 196 197 197 195 192 193 187 188 186 184 196 189 192 191 196 197 199
231 226 219 225 228 235 237 239 249 249 250 248 245 266 223 202 200 207 209 207 206 201 197 195 195 196 198 197 196 197 194 194 193 192 199 199 198 200 196 195 189 190 196 201
221 219 222 230 232 235 247 244 242 247 252 259 243 260 245 198 222 218 208 206 207 202 197 195 195 194 195 193 191 191 191 194 195 199 201 205 208 205 199 196 188 197 198 203
238 221 232 239 234 227 224 228 234 242 248 248 246 255 252 226 236 236 203 199 203 201 199 195 192 190 192 190 189 187 187 192 196 199 203 204 206 206 203 200 198 203 204 205
222 220 216 227 220 207 216 229 232 231 231 241 229 247 255 255 256 262 238 203 197 199 196 192 189 188 191 191 190 189 189 194 195 197 202 203 207 207 208 209 207 212 212 208
221 216 206 216 228 222 220 232 242 250 247 239 215 241 242 228 227 232 238 209 193 190 189 187 187 187 190 192 191 190 192 195 195 197 199 203 207 211 213 212 218 216 221 220
239 225 187 207 224 233 223 231 248 259 263 263 247 240 233 218 216 215 195 163 163 173 178 178 179 183 188 192 192 192 192 195 196 198 197 200 205 214 216 213 217 220 220 220
260 251 218 203 213 222 243 238 238 245 251 254 247 243 243 221 232 228 214 184 150 158 171 171 176 181 185 189 190 192 194 196 198 198 201 200 203 206 212 217 217 220 219 219
259 249 232 212 221 223 215 224 235 246 254 258 257 248 229 220 228 234 212 164 160 166 169 172 173 178 182 184 186 191 194 195 198 200 200 202 200 201 205 209 215 215 216 214
259 252 250 234 223 246 237 234 233 242 245 252 266 260 137 176 222 228 173 139 142 160 166 169 166 171 179 185 186 190 195 197 198 197 198 200 200 200 203 207 210 212 213 216
286 251 244 224 208 207 225 232 241 247 250 251 254 250 149 152 183 173 151 138 150 152 152 155 158 166 177 187 191 193 197 199 198 196 198 199 201 202 204 206 207 208 209 213
279 256 258 262 269 246 236 236 240 245 247 250 252 259 241 225 236 223 197 195 186 161 153 150 147 161 173 182 190 195 197 197 197 198 198 199 203 204 205 207 207 207 208 213
268 253 255 269 277 271 261 251 244 245 253 259 261 258 263 259 255 239 223 213 198 180 172 163 164 164 172 177 180 186 192 193 194 197 196 196 199 202 205 206 206 204 207 212
273 263 260 257 256 260 260 255 249 249 251 254 259 262 271 270 240 220 209 205 208 198 210 202 181 175 173 169 175 178 184 185 187 191 192 191 196 201 202 204 203 203 206 209
246 248 257 257 251 260 249 248 248 246 247 250 253 264 265 250 233 230 223 212 219 209 219 231 229 207 185 178 168 170 174 177 178 180 186 187 191 194 195 199 198 202 205 203
242 249 253 259 253 249 250 261 259 254 250 252 260 266 261 258 241 234 208 199 204 234 232 237 228 217 183 161 150 155 155 162 168 170 174 177 179 183 186 189 194 200 204 205
230 232 248 251 250 253 238 240 255 255 252 253 256 262 256 244 217 209 188 252 252 250 253 250 290 244 156 156 158 159 162 164 167 169 169 167 174 179 181 182 188 195 197 204
209 221 240 244 255 252 239 90 318 270 244 211 252 257 258 248 245 241 202 272 285 284 259 258 247 210 183 188 176 183 184 180 183 177 165 164 171 183 187 189 195 199 201 207
208 218 233 243 249 253 11 350 253 241 274 16 314 267 250 253 285 295 246 269 276 272 254 237 220 192 192 204 199 197 196 193 183 165 162 168 177 187 190 192 198 202 209 209
233 230 228 238 244 241 38 301 267 331 352 329 311 286 273 281 289 267 231 257 273 277 255 229 208 201 209 221 216 214 209 187 173 166 161 168 180 198 185 184 199 204 207 210
243 264 262 247 256 353 334 319 325 318 313 313 303 293 280 278 276 261 257 262 277 284 274 246 225 218 241 243 229 227 212 188 183 175 167 164 157 165 176 179 195 206 202 212
233 268 258 255 253 272 288 298 317 323 318 314 305 293 279 277 278 274 266 271 267 270 265 259 239 247 260 260 239 212 202 194 184 179 170 167 168 174 164 188 204 214 205 204
270 244 248 255 263 275 261 286 312 316 314 315 309 290 281 280 275 266 269 273 271 260 257 251 252 250 254 260 253 222 193 195 194 193 191 189 191 184 175 181 208 229 226 237
242 247 255 264 281 283 284 297 304 304 305 310 308 298 289 280 269 267 266 263 265 269 259 252 257 261 260 243 242 240 213 187 190 198 201 204 196 182 183 167 138 77 98 91
Height
1482 1480 1478 1474 1474 1475 1476 1479 1480 1479 1477 1479 1479 1479 1479 1484 1487 1490 1493 1496 1499 1501 1505 1507 1510 1512 1513 1515 1516 1518 1520 1521 1523 1525 1527 1529 1531 1532 1534 1535 1536 1537 1539 1540
1480 1477 1472 1472 1474 1476 1477 1480 1479 1477 1477 1479 1478 1478 1476 1481 1484 1487 1489 1492 1495 1499 1502 1505 1507 1509 1511 1512 1514 1516 1518 1520 1522 1524 1526 1528 1530 1532 1533 1534 1535 1537 1538 1540
1473 1470 1471 1475 1476 1478 1476 1477 1477 1478 1477 1476 1478 1479 1476 1477 1481 1484 1487 1489 1492 1495 1498 1501 1503 1506 1508 1510 1512 1514 1516 1518 1520 1523 1525 1527 1528 1530 1532 1533 1534 1536 1537 1539
1469 1469 1472 1473 1474 1474 1477 1471 1474 1477 1480 1477 1478 1484 1474 1471 1476 1479 1482 1485 1487 1490 1494 1497 1500 1502 1504 1507 1509 1511 1514 1516 1518 1521 1523 1525 1526 1528 1530 1532 1533 1534 1536 1537
1469 1468 1471 1472 1470 1470 1471 1470 1472 1474 1476 1478 1475 1481 1473 1468 1472 1473 1476 1480 1483 1486 1490 1493 1496 1499 1501 1504 1507 1509 1511 1513 1516 1518 1520 1522 1525 1527 1528 1530 1531 1533 1534 1535
1465 1466 1468 1467 1467 1468 1470 1473 1474 1473 1473 1486 1476 1479 1476 1465 1467 1467 1471 1477 1481 1484 1487 1490 1493 1496 1499 1502 1504 1506 1508 1510 1512 1515 1517 1519 1522 1524 1526 1527 1529 1530 1532 1533
1468 1465 1465 1467 1467 1468 1470 1477 1485 1487 1485 1481 1469 1476 1471 1462 1463 1466 1470 1474 1478 1481 1483 1486 1489 1492 1496 1499 1501 1503 1505 1507 1509 1512 1514 1516 1518 1520 1522 1524 1526 1528 1530 1531
1470 1469 1463 1464 1465 1466 1467 1469 1483 1490 1484 1473 1471 1474 1464 1461 1465 1468 1470 1472 1475 1477 1479 1482 1486 1489 1493 1496 1498 1500 1502 1504 1506 1508 1511 1513 1515 1518 1520 1521 1523 1525 1527 1528
1465 1466 1460 1462 1463 1463 1466 1466 1460 1468 1471 1476 1468 1464 1461 1461 1464 1466 1469 1471 1473 1475 1477 1480 1483 1487 1490 1492 1495 1497 1499 1501 1503 1505 1507 1509 1512 1514 1517 1518 1520 1522 1523 1525
1464 1470 1460 1461 1462 1462 1461 1460 1464 1469 1483 1485 1474 1468 1464 1462 1462 1463 1466 1469 1472 1474 1476 1479 1481 1484 1487 1490 1492 1494 1496 1498 1500 1502 1504 1506 1508 1511 1513 1515 1517 1518 1520 1521
1464 1469 1463 1461 1464 1461 1464 1465 1464 1464 1466 1477 1479 1467 1451 1457 1460 1462 1464 1468 1471 1473 1475 1477 1480 1482 1485 1487 1489 1491 1493 1495 1497 1499 1501 1503 1505 1507 1509 1511 1513 1515 1516 1517
1468 1465 1465 1460 1457 1459 1458 1460 1462 1471 1473 1469 1470 1465 1452 1456 1459 1462 1465 1469 1471 1473 1474 1476 1478 1480 1483 1485 1487 1488 1490 1492 1494 1496 1498 1500 1502 1504 1506 1507 1509 1511 1512 1514
1471 1469 1473 1466 1463 1461 1460 1459 1458 1459 1463 1465 1468 1464 1453 1457 1460 1464 1467 1469 1471 1472 1474 1475 1477 1478 1480 1482 1484 1486 1487 1489 1491 1493 1494 1496 1498 1500 1502 1504 1505 1507 1508 1510
1474 1468 1470 1468 1460 1457 1460 1460 1459 1460 1460 1461 1459 1457 1453 1457 1460 1464 1467 1470 1471 1472 1473 1474 1475 1477 1478 1480 1481 1483 1485 1486 1488 1490 1491 1493 1495 1497 1498 1500 1501 1503 1504 1506
1472 1468 1465 1461 1458 1458 1458 1458 1457 1459 1457 1457 1454 1453 1453 1456 1460 1464 1467 1469 1470 1471 1473 1474 1474 1475 1476 1478 1479 1480 1482 1484 1485 1487 1488 1489 1491 1493 1495 1496 1498 1499 1500 1501
1472 1471 1468 1466 1460 1459 1459 1456 1455 1455 1454 1453 1453 1453 1452 1458 1462 1464 1466 1468 1469 1470 1471 1473 1473 1474 1475 1475 1477 1478 1479 1481 1482 1483 1485 1486 1488 1489 1491 1493 1494 1495 1496 1497
1471 1473 1472 1465 1458 1460 1461 1453 1452 1452 1451 1452 1453 1453 1455 1458 1461 1464 1466 1467 1468 1469 1470 1471 1472 1472 1473 1473 1474 1475 1477 1478 1479 1480 1482 1483 1484 1486 1487 1489 1490 1491 1492 1493
1475 1474 1470 1464 1465 1471 1453 1449 1450 1452 1451 1451 1452 1454 1456 1458 1461 1463 1465 1466 1467 1468 1469 1470 1471 1471 1471 1472 1473 1474 1475 1476 1477 1478 1479 1480 1481 1482 1484 1485 1486 1487 1489 1489
1472 1474 1470 1465 1463 1456 1452 1451 1452 1453 1452 1452 1453 1455 1457 1458 1460 1461 1464 1465 1467 1467 1468 1468 1469 1470 1470 1470 1471 1472 1473 1474 1475 1475 1476 1477 1478 1479 1480 1481 1483 1484 1485 1486
1470 1471 1470 1466 1468 1463 1452 1452 1455 1456 1454 1453 1454 1456 1457 1458 1457 1457 1462 1464 1465 1466 1466 1466 1467 1468 1468 1469 1469 1470 1471 1472 1472 1473 1474 1474 1475 1476 1477 1478 1479 1481 1482 1482
1467 1469 1467 1465 1464 1453 1453 1455 1457 1461 1456 1456 1456 1457 1458 1459 1458 1460 1461 1462 1463 1463 1464 1464 1464 1465 1466 1466 1467 1467 1468 1469 1470 1470 1471 1472 1472 1473 1473 1474 1476 1477 1479 1479
1463 1463 1465 1463 1464 1459 1457 1456 1457 1458 1459 1458 1458 1458 1459 1459 1459 1459 1459 1460 1461 1461 1461 1462 1462 1463 1463 1464 1464 1465 1465 1466 1467 1467 1468 1469 1470 1470 1471 1471 1472 1473 1475 1476
1463 1462 1459 1460 1460 1460 1461 1461 1462 1462 1461 1459 1459 1458 1459 1458 1458 1458 1458 1459 1459 1459 1460 1460 1460 1461 1461 1462 1462 1462 1462 1463 1464 1465 1465 1466 1467 1467 1467 1468 1469 1471 1471 1473
1463 1466 1464 1462 1458 1460 1461 1461 1461 1461 1461 1459 1459 1458 1458 1457 1457 1457 1457 1457 1457 1458 1458 1458 1459 1459 1459 1459 1460 1460 1460 1460 1461 1462 1463 1463 1464 1464 1465 1466 1467 1469 1469 1470
1463 1465 1463 1462 1460 1461 1460 1461 1461 1460 1459 1458 1457 1456 1456 1455 1455 1455 1455 1456 1456 1455 1456 1457 1457 1457 1456 1457 1457 1457 1457 1458 1459 1460 1460 1461 1462 1463 1463 1464 1465 1466 1467 1468
1462 1462 1462 1459 1460 1460 1459 1459 1459 1458 1457 1456 1455 1454 1454 1453 1453 1453 1453 1453 1453 1454 1454 1454 1455 1455 1455 1455 1455 1455 1455 1456 1456 1457 1458 1460 1461 1461 1462 1462 1463 1464 1465 1466